Home > Weather > Aurora > Past weeks

Flag for USA Past Weather in Aurora, Illinois, USA — Yesterday and Last 2 Weeks

Now
74 °F

Broken clouds.


Feels Like: 74 °F
Forecast: 68 / 78 °F
Wind: 14 mph from Northeast

Location: Dupage Airport

Current Time: Jul 29, 2016 at 6:42:45 PM

Latest Report: Jul 29, 2016 at 5:52 PM


Visibility: 10 mi

Pressure: 29.92 "Hg

Humidity: 82%

Dew Point: 68 °F

Location of AuroraLocation

Past Weather in Aurora — Graph

°F

Aurora Temperature Yesterday

Maximum temperature yesterday: 85 °F (at 11:52 AM)
Minimum temperature yesterday: 67 °F (at 3:52 PM)
Average temperature yesterday: 74 °F

High & Low Weather Summary for the Past Weeks

 TemperatureHumidityPressure
High92 °F (Jul 21, 1:52 PM)94% (Jul 19, 3:52 AM)30.24 "Hg (Jul 19, 3:52 AM)
Low53 °F (Jul 16, 5:52 AM)37% (Jul 16, 4:52 PM)29.82 "Hg (Jul 24, 5:52 PM)
Average76 °F73%30.01 "Hg
* Reported Jul 14 4:52 PM — Jul 29 4:52 PM, Aurora, Weather by CustomWeather, © 2016

Note: Actual official high and low records may vary slightly from our data, if they occured in-between our weather recording intervals... More about our weather records

Advertising

Aurora Weather History for the Previous 24 Hours

Scroll right to see more
 ConditionsComfort  
Time TempWeatherWind HumidityBarometerVisibility
4:52 PM
Fri, Jul 29
73 °FMostly cloudy.10 mph84%29.91 "Hg7 mi
3:52 PM74 °FThundershowers. Fog.10 mph91%29.90 "Hg4 mi
3:03 PM72 °FStrong thunderstorms. Fog.7 mph91%29.94 "Hg2 mi
2:56 PM73 °FHeavy rain. Fog.7 mph88%29.93 "Hg2 mi
1:59 PM76 °FStrong thunderstorms. Cloudy.12 mph77%29.90 "Hg2 mi
1:52 PM77 °FThunderstorms. Mostly cloudy.16 mph74%29.88 "Hg9 mi
12:52 PM82 °FThunderstorms. Scattered clouds.10 mph65%29.89 "Hg10 mi
12:03 PM79 °FMostly cloudy.8 mph69%29.93 "Hg10 mi
11:52 AM79 °FCloudy.8 mph72%29.92 "Hg10 mi
10:52 AM80 °FScattered clouds.7 mph69%29.92 "Hg10 mi
9:52 AM77 °FScattered clouds.6 mph77%29.91 "Hg10 mi
8:52 AM76 °FBroken clouds.7 mph80%29.93 "Hg10 mi
7:52 AM73 °FPartly sunny.5 mph84%29.91 "Hg10 mi
6:52 AM71 °FMostly cloudy.6 mph90%29.91 "Hg9 mi
5:52 AM71 °FLow clouds.5 mph90%29.90 "Hg3 mi
4:52 AM70 °FFog.6 mph93%29.90 "Hg5 mi
3:52 AM70 °FFog.6 mph93%29.90 "Hg3 mi
2:52 AM70 °FFog.5 mph93%29.90 "Hg5 mi
1:52 AM70 °FFog.7 mph93%29.91 "Hg1 mi
12:52 AM70 °FFog.9 mph93%29.91 "Hg5 mi
11:52 PM
Thu, Jul 28
69 °FFog.5 mph93%29.90 "Hg5 mi
10:52 PM70 °FPassing clouds.5 mph87%29.91 "Hg9 mi
9:52 PM70 °FClear.No wind87%29.90 "Hg10 mi
8:52 PM70 °FSunny.7 mph84%29.90 "Hg10 mi
7:52 PM74 °FBroken clouds.10 mph85%29.90 "Hg10 mi
6:52 PM75 °FSunny.8 mph88%29.85 "Hg7 mi
Weather by CustomWeather, © 2016

See weather overviewHow to use our weather pages